�������l�o���
Date,Time,MP-1(��Sv/h),MP-2(��Sv/h),MP-3(��Sv/h),MP-4(��Sv/h),MP-5(��Sv/h),MP-6(��Sv/h),MP-7(��Sv/h),����,����(m/s),���J
2024/01/31,00:00,0.148,0.131,0.210,0.200,0.207,0.118,0.077,�k��,1.0,��
2024/01/31,00:10,0.148,0.131,0.210,0.200,0.207,0.118,0.077,�k��,0.9,��
2024/01/31,00:20,0.149,0.132,0.211,0.200,0.207,0.118,0.077,�k�k��,0.8,��
2024/01/31,00:30,0.148,0.132,0.211,0.201,0.208,0.119,0.077,-,CALM,��
2024/01/31,00:40,0.148,0.132,0.210,0.200,0.206,0.118,0.077,-,CALM,��
2024/01/31,00:50,0.148,0.131,0.211,0.201,0.206,0.118,0.078,-,CALM,��
2024/01/31,01:00,0.148,0.131,0.211,0.201,0.206,0.118,0.077,-,CALM,��
2024/01/31,01:10,0.148,0.132,0.210,0.199,0.207,0.117,0.077,-,CALM,��
2024/01/31,01:20,0.148,0.130,0.211,0.201,0.207,0.118,0.077,-,CALM,��
2024/01/31,01:30,0.148,0.132,0.211,0.199,0.206,0.118,0.076,-,CALM,��
2024/01/31,01:40,0.148,0.130,0.211,0.200,0.205,0.119,0.077,-,CALM,��
2024/01/31,01:50,0.148,0.130,0.210,0.200,0.207,0.118,0.077,-,CALM,��
2024/01/31,02:00,0.147,0.132,0.211,0.199,0.207,0.119,0.076,���쐼,0.6,��
2024/01/31,02:10,0.148,0.132,0.209,0.200,0.206,0.119,0.076,�쐼,0.7,��
2024/01/31,02:20,0.148,0.131,0.210,0.200,0.207,0.118,0.077,�쐼,0.9,��
2024/01/31,02:30,0.148,0.131,0.210,0.200,0.208,0.119,0.077,�쐼,1.1,��
2024/01/31,02:40,0.148,0.131,0.209,0.201,0.208,0.118,0.076,��쐼,1.0,��
2024/01/31,02:50,0.148,0.132,0.210,0.201,0.207,0.118,0.077,�쐼,0.6,��
2024/01/31,03:00,0.148,0.132,0.211,0.199,0.207,0.118,0.077,-,CALM,��
2024/01/31,03:10,0.149,0.131,0.211,0.199,0.207,0.118,0.076,-,CALM,��
2024/01/31,03:20,0.148,0.131,0.211,0.200,0.207,0.118,0.077,��쐼,0.9,��
2024/01/31,03:30,0.149,0.132,0.211,0.200,0.208,0.119,0.077,�쐼,0.8,��
2024/01/31,03:40,0.148,0.130,0.211,0.201,0.207,0.118,0.076,�쐼,0.9,��
2024/01/31,03:50,0.148,0.132,0.210,0.200,0.207,0.118,0.077,���쐼,1.0,��
2024/01/31,04:00,0.148,0.131,0.210,0.200,0.207,0.118,0.076,���쐼,1.1,��
2024/01/31,04:10,0.149,0.131,0.210,0.200,0.206,0.118,0.076,�쐼,0.9,��
2024/01/31,04:20,0.148,0.131,0.210,0.200,0.206,0.118,0.076,���쐼,0.7,��
2024/01/31,04:30,0.148,0.131,0.210,0.199,0.206,0.118,0.077,�쐼,1.5,��
2024/01/31,04:40,0.148,0.132,0.211,0.200,0.207,0.119,0.077,�쐼,1.5,��
2024/01/31,04:50,0.148,0.131,0.211,0.200,0.207,0.118,0.077,�쐼,1.6,��
2024/01/31,05:00,0.148,0.131,0.210,0.200,0.206,0.119,0.077,�쐼,1.6,��
2024/01/31,05:10,0.148,0.131,0.210,0.199,0.207,0.118,0.077,�쐼,1.2,��
2024/01/31,05:20,0.148,0.131,0.210,0.199,0.207,0.118,0.076,�쐼,2.2,��
2024/01/31,05:30,0.148,0.131,0.210,0.200,0.206,0.119,0.077,�쐼,2.6,��
2024/01/31,05:40,0.148,0.132,0.210,0.200,0.206,0.119,0.076,�쐼,2.8,��
2024/01/31,05:50,0.148,0.132,0.210,0.200,0.207,0.118,0.077,�쐼,2.4,��
2024/01/31,06:00,0.149,0.131,0.211,0.200,0.206,0.118,0.077,��쐼,2.1,��
2024/01/31,06:10,0.148,0.132,0.211,0.200,0.207,0.118,0.077,�쐼,2.1,��
2024/01/31,06:20,0.149,0.132,0.209,0.200,0.207,0.118,0.077,�쐼,2.0,��
2024/01/31,06:30,0.148,0.132,0.211,0.200,0.206,0.119,0.077,��쐼,2.3,��
2024/01/31,06:40,0.148,0.131,0.210,0.201,0.207,0.119,0.077,�쐼,2.3,��
2024/01/31,06:50,0.149,0.131,0.211,0.200,0.207,0.118,0.076,�쐼,3.0,��
2024/01/31,07:00,0.148,0.132,0.210,0.200,0.207,0.118,0.076,�쐼,2.7,��
2024/01/31,07:10,0.148,0.132,0.211,0.200,0.207,0.118,0.077,��쐼,2.1,��
2024/01/31,07:20,0.149,0.132,0.210,0.199,0.207,0.119,0.077,��,2.4,��
2024/01/31,07:30,0.149,0.131,0.210,0.200,0.207,0.118,0.077,��쐼,2.8,��
2024/01/31,07:40,0.149,0.131,0.210,0.201,0.206,0.118,0.077,��,2.3,��
2024/01/31,07:50,0.149,0.132,0.210,0.199,0.208,0.118,0.077,��,1.9,��
2024/01/31,08:00,0.149,0.132,0.210,0.200,0.208,0.119,0.077,��,1.9,��
2024/01/31,08:10,0.149,0.131,0.210,0.199,0.207,0.119,0.076,��,2.3,��
2024/01/31,08:20,0.148,0.132,0.211,0.200,0.205,0.118,0.077,��,3.1,��
2024/01/31,08:30,0.148,0.132,0.211,0.200,0.207,0.118,0.077,��쐼,3.6,��
2024/01/31,08:40,0.148,0.132,0.212,0.199,0.207,0.119,0.078,��쐼,3.9,��
2024/01/31,08:50,0.149,0.133,0.210,0.200,0.208,0.118,0.077,��,3.6,��
2024/01/31,09:00,0.149,0.132,0.211,0.199,0.207,0.118,0.077,��,2.7,��
2024/01/31,09:10,0.149,0.132,0.211,0.199,0.207,0.119,0.077,��,3.1,��
2024/01/31,09:20,0.149,0.132,0.211,0.200,0.206,0.118,0.078,��쓌,2.4,��
2024/01/31,09:30,0.149,0.132,0.211,0.201,0.207,0.119,0.076,�쓌,1.7,��
2024/01/31,09:40,0.148,0.132,0.210,0.199,0.208,0.118,0.077,��,2.4,��
2024/01/31,09:50,0.150,0.132,0.211,0.200,0.207,0.118,0.077,��,3.2,��
2024/01/31,10:00,0.148,0.130,0.211,0.199,0.207,0.118,0.077,��,3.7,��
2024/01/31,10:10,0.147,0.131,0.210,0.200,0.206,0.118,0.076,��,3.3,��
2024/01/31,10:20,0.148,0.131,0.210,0.200,0.208,0.118,0.076,��,2.5,��
2024/01/31,10:30,0.147,0.131,0.210,0.198,0.207,0.118,0.077,��쓌,3.5,��
2024/01/31,10:40,0.148,0.131,0.210,0.200,0.207,0.117,0.077,��,4.1,��
2024/01/31,10:50,0.148,0.131,0.210,0.199,0.206,0.117,0.076,��,4.7,��
2024/01/31,11:00,0.147,0.131,0.209,0.200,0.206,0.119,0.076,��,4.8,��
2024/01/31,11:10,0.147,0.132,0.209,0.198,0.206,0.118,0.076,��,4.7,��
2024/01/31,11:20,0.147,0.131,0.210,0.200,0.206,0.117,0.076,��,3.8,��
2024/01/31,11:30,0.148,0.131,0.209,0.200,0.206,0.118,0.076,��,4.8,��
2024/01/31,11:40,0.148,0.130,0.211,0.199,0.206,0.118,0.076,��,4.0,��
2024/01/31,11:50,0.147,0.131,0.209,0.200,0.205,0.117,0.077,��,3.8,��
2024/01/31,12:00,0.148,0.131,0.211,0.198,0.206,0.119,0.076,��,2.9,��
2024/01/31,12:10,0.147,0.131,0.209,0.200,0.204,0.118,0.077,��쓌,4.2,��
2024/01/31,12:20,0.148,0.130,0.210,0.198,0.208,0.119,0.076,��쓌,3.9,��
2024/01/31,12:30,0.147,0.131,0.209,0.200,0.205,0.118,0.077,��쓌,4.8,��
2024/01/31,12:40,0.148,0.131,0.211,0.197,0.209,0.118,0.076,��쓌,3.9,��
2024/01/31,12:50,0.147,0.131,0.209,0.199,0.206,0.118,0.076,��쓌,4.1,��
2024/01/31,13:00,0.148,0.131,0.210,0.199,0.208,0.118,0.077,��쓌,4.8,��
2024/01/31,13:10,0.146,0.131,0.209,0.200,0.206,0.117,0.077,��쓌,3.7,��
2024/01/31,13:20,0.147,0.131,0.211,0.198,0.207,0.119,0.077,��쓌,4.1,��
2024/01/31,13:30,0.148,0.131,0.210,0.198,0.206,0.117,0.076,��쓌,4.1,��
2024/01/31,13:40,0.147,0.130,0.211,0.199,0.207,0.119,0.077,��,4.5,��
2024/01/31,13:50,0.147,0.132,0.209,0.198,0.207,0.118,0.076,��쓌,4.2,��
2024/01/31,14:00,0.148,0.130,0.211,0.200,0.205,0.119,0.076,�쓌,4.4,��
2024/01/31,14:10,0.146,0.131,0.209,0.199,0.208,0.118,0.077,��쓌,4.6,��
2024/01/31,14:20,0.147,0.131,0.210,0.200,0.205,0.118,0.077,��쓌,5.2,��
2024/01/31,14:30,0.146,0.131,0.210,0.199,0.208,0.118,0.076,��쓌,5.4,��
2024/01/31,14:40,0.148,0.131,0.209,0.200,0.206,0.118,0.077,��쓌,5.1,��
2024/01/31,14:50,0.147,0.131,0.212,0.200,0.209,0.117,0.076,��쓌,5.4,��
2024/01/31,15:00,0.149,0.131,0.210,0.202,0.207,0.118,0.076,��쓌,4.9,��
2024/01/31,15:10,0.148,0.131,0.212,0.200,0.208,0.118,0.076,��쓌,5.0,��
2024/01/31,15:20,0.148,0.131,0.209,0.200,0.206,0.119,0.076,��쓌,5.3,��
2024/01/31,15:30,0.148,0.132,0.211,0.201,0.209,0.118,0.076,��쓌,4.6,��
2024/01/31,15:40,0.147,0.130,0.211,0.200,0.207,0.118,0.076,��쓌,4.0,��
2024/01/31,15:50,0.149,0.131,0.211,0.201,0.205,0.117,0.076,��,5.5,��
2024/01/31,16:00,0.147,0.130,0.211,0.200,0.207,0.118,0.077,��,5.2,��
2024/01/31,16:10,0.148,0.131,0.211,0.200,0.207,0.117,0.076,��,3.7,��
2024/01/31,16:20,0.147,0.132,0.209,0.200,0.207,0.119,0.077,��쓌,5.1,��
2024/01/31,16:30,0.148,0.131,0.210,0.199,0.207,0.119,0.076,��,5.1,��
2024/01/31,16:40,0.148,0.131,0.210,0.200,0.207,0.118,0.076,��,4.4,��
2024/01/31,16:50,0.148,0.132,0.210,0.201,0.206,0.118,0.076,��,3.6,��
2024/01/31,17:00,0.148,0.131,0.209,0.199,0.206,0.118,0.077,��,4.6,��
2024/01/31,17:10,0.148,0.133,0.210,0.200,0.208,0.118,0.077,��,4.2,��
2024/01/31,17:20,0.148,0.131,0.210,0.200,0.207,0.117,0.076,��,4.0,��
2024/01/31,17:30,0.148,0.131,0.211,0.199,0.206,0.119,0.077,��쐼,3.3,��
2024/01/31,17:40,0.148,0.132,0.210,0.200,0.208,0.119,0.076,���쐼,2.7,��
2024/01/31,17:50,0.148,0.131,0.210,0.202,0.207,0.118,0.077,��,1.8,��
2024/01/31,18:00,0.148,0.131,0.211,0.200,0.208,0.118,0.076,���k��,2.3,��
2024/01/31,18:10,0.149,0.132,0.211,0.200,0.207,0.119,0.077,���k��,3.0,��
2024/01/31,18:20,0.148,0.132,0.210,0.202,0.207,0.119,0.076,�k��,2.7,��
2024/01/31,18:30,0.149,0.132,0.210,0.201,0.207,0.118,0.076,���k��,3.0,��
2024/01/31,18:40,0.148,0.132,0.211,0.200,0.208,0.119,0.076,���k��,3.2,��
2024/01/31,18:50,0.148,0.132,0.211,0.200,0.207,0.119,0.077,���k��,3.3,��
2024/01/31,19:00,0.148,0.131,0.211,0.200,0.207,0.119,0.077,���k��,3.7,��
2024/01/31,19:10,0.148,0.133,0.212,0.200,0.208,0.119,0.077,���k��,4.7,��
2024/01/31,19:20,0.149,0.132,0.212,0.200,0.207,0.118,0.077,��,5.2,��
2024/01/31,19:30,0.148,0.131,0.212,0.200,0.207,0.119,0.077,��,4.4,��
2024/01/31,19:40,0.148,0.132,0.211,0.201,0.208,0.118,0.077,��,2.9,��
2024/01/31,19:50,0.149,0.132,0.210,0.200,0.207,0.118,0.076,��,3.6,��
2024/01/31,20:00,0.149,0.132,0.210,0.201,0.208,0.118,0.078,���쐼,4.4,��
2024/01/31,20:10,0.148,0.133,0.211,0.201,0.208,0.118,0.077,��,4.3,��
2024/01/31,20:20,0.148,0.132,0.210,0.202,0.207,0.119,0.076,��,5.2,��
2024/01/31,20:30,0.149,0.132,0.209,0.201,0.206,0.119,0.077,���k��,7.6,��
2024/01/31,20:40,0.149,0.132,0.210,0.201,0.208,0.118,0.077,��,8.1,��
2024/01/31,20:50,0.149,0.131,0.212,0.202,0.208,0.119,0.077,���k��,7.0,��
2024/01/31,21:00,0.148,0.131,0.212,0.201,0.206,0.118,0.077,���k��,6.3,��
2024/01/31,21:10,0.149,0.132,0.211,0.201,0.208,0.119,0.077,���k��,7.3,��
2024/01/31,21:20,0.149,0.133,0.211,0.201,0.207,0.118,0.077,���k��,6.2,��
2024/01/31,21:30,0.149,0.132,0.210,0.201,0.207,0.120,0.077,���k��,5.4,��
2024/01/31,21:40,0.150,0.133,0.210,0.201,0.207,0.118,0.077,��,5.6,��
2024/01/31,21:50,0.149,0.132,0.211,0.200,0.207,0.119,0.077,��,5.7,��
2024/01/31,22:00,0.149,0.131,0.211,0.199,0.207,0.119,0.077,��,7.0,��
2024/01/31,22:10,0.148,0.132,0.210,0.200,0.208,0.118,0.077,��,6.3,��
2024/01/31,22:20,0.149,0.132,0.211,0.200,0.207,0.120,0.076,��,6.2,��
2024/01/31,22:30,0.148,0.131,0.210,0.200,0.208,0.119,0.077,���k��,3.7,��
2024/01/31,22:40,0.148,0.132,0.211,0.202,0.207,0.119,0.077,��,4.3,��
2024/01/31,22:50,0.148,0.134,0.211,0.201,0.207,0.119,0.077,��,5.6,��
2024/01/31,23:00,0.149,0.132,0.210,0.200,0.207,0.119,0.077,��,4.5,��
2024/01/31,23:10,0.148,0.132,0.211,0.200,0.208,0.119,0.077,��,4.7,��
2024/01/31,23:20,0.148,0.132,0.211,0.200,0.208,0.119,0.077,��,3.1,��
2024/01/31,23:30,0.149,0.132,0.211,0.200,0.207,0.118,0.077,-,CALM,��
2024/01/31,23:40,0.148,0.132,0.211,0.200,0.208,0.119,0.077,��,2.6,��
2024/01/31,23:50,0.149,0.132,0.211,0.200,0.208,0.119,0.077,��쐼,1.0,��
